Theta_e
297 298 297 300 301 301 304 303 300 292 293 295 295 301 305 307 311 313 307 310 313 313 315 317 318 319 320 319 320 322 322 322 323 323 324 326 327 329
296 296 296 299 301 303 303 303 302 299 294 298 297 300 302 306 310 310 306 312 311 312 313 317 318 317 318 317 317 319 321 322 321 322 323 324 325 327
294 295 296 299 300 302 302 301 301 300 295 295 296 299 300 301 304 305 305 305 308 311 313 316 316 316 315 315 314 316 320 320 321 321 321 321 322 324
295 295 299 302 299 301 302 301 300 299 297 291 294 297 298 301 303 300 303 305 307 310 312 316 316 315 314 314 312 312 313 317 318 319 320 318 319 321
295 296 298 298 296 298 298 299 298 297 296 294 294 298 297 300 300 300 301 302 307 311 311 314 315 314 314 313 311 310 310 309 312 314 316 317 317 319
296 297 301 301 299 301 300 298 297 296 295 294 295 294 297 299 297 297 297 300 303 308 312 311 314 313 313 312 310 310 309 308 307 310 311 312 313 315
295 299 301 302 304 302 300 298 296 295 295 294 293 292 294 294 295 295 295 298 303 306 304 307 311 310 311 310 310 309 308 309 307 307 308 308 308 310
294 297 298 301 300 302 302 300 299 295 294 294 292 290 290 293 295 294 294 295 297 305 303 304 309 308 309 309 308 307 306 306 307 307 307 307 307 307
293 294 295 297 299 299 298 299 298 299 299 296 294 292 289 293 295 294 296 295 297 302 303 305 308 306 309 310 308 306 306 303 304 304 304 304 304 305
293 292 291 295 298 297 296 295 295 296 296 295 295 294 292 296 297 299 299 298 301 303 304 301 306 305 307 310 308 306 304 303 304 302 302 301 301 301
293 292 293 295 296 296 293 293 294 294 298 299 298 297 297 297 300 299 298 299 297 299 303 301 305 303 305 307 309 307 304 303 304 304 303 303 302 302
291 291 295 296 295 295 294 291 291 291 294 292 294 296 296 298 299 298 297 295 298 296 302 300 303 304 300 306 307 309 309 306 305 305 305 305 305 309
290 294 295 295 294 294 294 292 290 293 294 294 294 292 291 293 296 297 297 295 298 298 302 302 301 303 301 301 305 308 308 307 308 307 305 302 304 308
291 294 294 294 293 293 293 293 294 293 293 292 291 291 291 292 293 295 295 294 299 301 304 303 301 303 301 301 301 306 307 308 308 307 307 306 303 301
294 295 294 293 293 293 294 294 293 292 290 289 290 291 292 293 295 295 293 294 299 305 306 305 304 304 303 301 301 304 304 306 308 307 306 305 305 305
295 294 295 294 294 294 293 293 292 292 292 290 290 292 293 293 294 295 292 295 298 300 305 306 306 306 303 303 304 303 304 303 306 305 304 302 303 303
293 294 292 292 291 291 291 291 292 292 291 291 291 291 292 293 294 295 295 295 295 296 298 302 304 303 302 303 303 303 304 304 305 303 303 300 300 299
292 292 291 291 290 290 290 290 291 291 291 291 291 291 291 292 292 294 294 294 294 295 296 298 301 302 301 302 302 304 304 303 303 302 302 299 297 297
292 292 291 291 290 290 290 290 289 289 291 290 291 291 291 292 292 292 293 293 293 294 295 297 299 300 297 295 300 299 302 302 301 300 300 298 297 296
292 292 291 292 291 290 289 289 289 289 289 289 290 291 292 292 292 291 292 292 292 294 295 296 299 300 298 296 294 295 295 301 300 298 296 297 294 296
293 292 292 292 291 290 289 288 288 288 288 288 288 290 292 292 291 291 291 288 289 294 294 296 298 290 301 300 295 293 295 297 299 299 297 298 297 297
293 292 292 292 291 289 287 287 287 287 287 287 287 288 290 292 291 291 291 291 292 293 294 297 301 301 299 297 293 293 293 295 297 298 298 297 294 294
292 292 292 291 290 288 286 286 286 286 286 286 287 287 289 290 291 291 291 291 292 294 295 297 299 298 297 295 293 293 293 293 294 294 294 297 297 298
Wind_Speed
5 6 4 4 4 4 3 3 3 7 7 5 4 8 10 11 14 12 6 17 23 22 21 20 20 21 20 19 21 24 24 25 24 24 25 23 22 21
4 6 5 4 6 5 3 3 3 3 6 7 7 9 10 10 14 10 8 19 20 22 21 20 19 19 18 17 18 20 24 25 25 24 23 22 20 19
7 6 8 7 5 4 3 3 3 1 4 6 6 9 9 9 11 8 8 9 9 21 22 21 18 16 17 17 18 17 19 23 24 25 24 23 21 19
7 7 7 5 6 6 5 5 3 3 3 8 6 7 8 10 9 8 8 8 8 15 23 19 17 18 18 16 17 17 13 16 23 23 23 25 26 24
6 6 7 6 6 6 5 3 3 4 5 4 7 8 5 6 8 5 8 9 8 18 17 17 15 18 19 16 18 16 13 13 15 19 20 21 25 24
7 7 8 7 6 4 2 3 4 5 6 6 7 7 4 6 5 6 10 7 10 9 9 15 15 18 17 18 19 19 17 15 14 16 18 20 20 23
8 9 8 12 17 12 3 4 4 5 6 7 8 7 7 8 8 4 6 9 9 3 8 8 8 7 10 15 17 18 17 4 11 13 16 17 18 18
7 8 7 13 12 19 11 10 9 7 9 8 7 5 5 9 8 7 6 7 7 2 7 7 4 6 8 9 21 19 20 14 8 8 10 16 18 16
7 7 8 8 12 7 7 12 15 18 15 9 8 4 6 10 10 10 8 4 6 7 6 3 3 5 6 9 22 18 20 19 11 10 12 12 15 14
7 7 6 7 4 7 8 9 10 9 9 7 4 7 6 9 9 10 9 5 5 4 3 3 3 3 5 7 15 19 19 19 15 10 17 18 18 19
8 7 7 7 11 14 8 7 9 9 8 12 13 14 12 12 8 7 5 3 3 3 2 2 2 3 3 5 8 15 15 19 16 13 14 19 21 23
8 7 10 9 15 16 7 6 7 8 7 8 8 6 6 5 7 4 5 5 3 3 1 5 3 3 3 3 5 8 8 15 16 20 19 16 16 11
6 5 6 12 15 15 12 4 6 8 10 5 5 4 5 5 3 5 4 4 4 3 2 1 2 2 1 3 3 4 5 5 8 11 18 22 19 12
7 5 7 12 13 14 10 14 12 9 4 3 4 5 5 5 5 6 7 5 5 7 6 2 2 2 1 2 2 4 4 5 5 7 8 13 19 22
5 10 14 10 12 9 11 13 11 4 4 3 4 4 4 5 7 6 6 6 6 4 2 3 4 3 1 1 1 3 3 5 6 7 8 8 6 5
9 8 9 10 10 9 8 7 5 5 5 4 4 5 4 5 5 4 3 4 2 4 5 6 4 3 2 2 2 2 3 3 4 7 7 8 8 8
7 5 6 6 6 5 5 5 5 5 5 4 4 5 4 4 3 4 3 3 3 3 4 4 6 7 7 4 3 3 4 5 5 5 8 8 8 7
3 5 7 6 6 6 6 6 4 6 4 5 4 4 4 3 3 3 2 2 3 3 3 3 3 1 2 7 18 4 6 6 5 6 6 8 8 6
4 6 7 7 7 6 6 6 6 5 5 5 5 4 4 4 3 3 3 2 2 3 3 3 3 1 3 3 3 20 6 4 5 7 6 6 4 5
5 6 8 8 7 7 6 6 5 5 4 5 4 4 4 3 1 2 2 2 2 2 3 2 4 3 2 2 3 5 16 6 7 7 5 5 4 5
6 7 7 7 7 6 6 6 6 5 4 4 4 4 3 3 2 2 2 3 3 2 2 3 3 2 5 2 6 5 8 21 13 4 2 4 2 2
7 8 8 8 7 6 6 6 5 5 4 4 4 4 3 1 1 2 2 2 2 2 2 1 1 4 4 5 7 5 4 6 14 19 17 9 2 3
9 9 9 9 7 6 6 6 6 6 5 4 4 3 3 2 2 2 2 2 2 2 1 2 3 6 6 5 6 6 7 5 4 8 8 15 16 17
Wind_Direction
314 315 299 292 284 270 269 265 278 318 324 320 309 314 309 309 308 310 302 309 324 320 315 308 304 309 304 302 284 257 247 243 246 244 247 247 245 245
311 312 306 291 295 277 269 279 269 282 308 321 307 299 300 306 309 315 297 318 315 321 317 311 314 319 310 310 295 274 245 237 236 238 240 238 241 248
313 306 302 293 299 295 296 288 293 285 290 308 300 296 297 297 312 303 303 303 311 321 322 316 313 315 317 317 313 302 256 236 232 228 233 236 239 240
300 318 303 328 315 295 285 284 287 300 289 299 295 304 307 306 299 301 308 309 308 319 321 318 313 318 320 319 320 311 295 251 228 224 222 229 234 235
302 307 293 300 299 301 288 304 305 301 295 277 289 300 282 301 315 309 307 310 317 325 312 325 323 321 320 328 321 309 293 272 232 214 215 220 227 229
302 292 295 293 287 299 301 277 283 292 290 290 301 309 302 315 303 313 325 327 320 325 322 327 317 324 328 336 331 327 302 247 225 211 208 213 219 226
304 299 295 308 318 306 278 269 292 300 300 307 303 307 315 322 322 307 307 313 315 286 338 321 323 326 340 346 342 345 353 207 194 207 208 213 215 217
308 311 305 324 320 317 306 318 321 311 298 299 287 286 290 307 307 308 306 315 329 330 335 308 313 334 342 348 352 10 19 18 120 145 193 211 211 207
314 317 320 321 324 333 324 318 307 306 306 298 285 272 297 296 301 301 292 276 291 312 314 282 327 330 333 338 358 8 30 21 16 95 86 94 108 117
306 300 302 307 304 320 305 307 305 297 296 292 284 295 272 294 295 277 275 276 276 274 331 292 319 309 327 343 348 5 23 29 27 57 89 84 85 86
294 292 292 301 317 318 310 302 308 306 307 312 303 299 290 303 334 331 353 317 303 296 358 283 316 312 326 335 347 353 16 32 34 42 76 98 94 87
294 284 307 321 328 319 310 295 298 294 305 305 311 307 314 303 332 343 317 327 302 308 4 341 311 341 336 332 340 353 6 12 35 44 41 62 72 87
298 310 326 330 333 328 325 309 277 291 303 300 305 306 314 311 316 325 293 287 310 249 288 358 295 325 343 326 344 341 8 2 28 39 44 44 58 71
294 310 316 320 324 327 335 332 330 331 306 307 314 324 325 323 317 311 303 284 263 260 279 227 272 283 4 11 354 338 5 15 39 41 54 48 55 59
295 310 308 309 311 312 324 330 330 321 315 306 315 315 311 303 303 312 304 288 281 317 288 262 236 254 146 118 58 3 10 26 41 51 52 47 48 40
330 320 306 302 294 296 304 316 320 317 316 311 309 305 297 318 318 328 303 320 324 340 356 356 355 154 132 96 99 62 360 84 54 65 69 52 39 45
317 310 318 316 311 305 305 299 308 308 311 312 312 307 308 318 319 330 305 317 1 340 343 344 32 67 69 47 98 60 74 78 66 77 76 67 44 37
291 304 311 307 301 304 303 302 290 304 297 304 299 303 307 313 319 332 333 335 345 333 341 332 339 356 81 56 33 89 78 79 65 64 71 83 61 22
267 299 301 303 299 298 296 292 293 291 298 294 292 304 304 305 307 334 343 338 333 321 322 318 336 51 68 68 12 13 113 94 88 60 55 68 80 36
262 292 305 306 305 300 294 293 287 281 276 285 292 284 282 301 321 335 343 336 322 318 323 343 23 51 84 100 122 34 34 102 102 96 89 72 55 109
309 301 304 305 305 299 290 284 281 278 270 269 272 279 282 274 261 317 324 333 327 342 13 31 7 71 110 111 72 52 42 52 57 84 106 87 71 74
306 301 309 306 301 295 288 285 275 270 262 251 255 264 269 269 82 312 321 342 332 326 310 310 72 77 58 83 92 90 74 59 58 60 50 50 152 129
308 305 307 307 302 295 279 278 275 266 254 241 239 239 246 227 205 248 287 292 285 300 256 116 79 84 87 97 103 93 86 63 53 58 47 46 60 69